Time,TemperatureF,DewpointF,PressureIn,WindDirection,WindDirectionDegrees,WindSpeedMPH,WindSpeedGustMPH,Humidity,HourlyPrecipIn,Conditions,Clouds,dailyrainin,SoftwareType,DateUTC
2013-06-06 00:12:00,54.5,53.4,30.09,NNW,337,0.0,-999.0,96,-99.99,,,0.00,Acu-Link.com,2013-06-06 04:12:00,
2013-06-06 00:27:00,54.5,53.9,30.09,NNW,337,1.6,-999.0,98,-99.99,,,0.00,Acu-Link.com,2013-06-06 04:27:00,
2013-06-06 00:42:00,54.5,53.1,30.09,NNW,337,0.0,-999.0,95,-99.99,,,0.00,Acu-Link.com,2013-06-06 04:42:00,
2013-06-06 00:58:00,54.3,53.2,30.09,NNW,337,0.0,-999.0,96,-99.99,,,0.00,Acu-Link.com,2013-06-06 04:58:00,
2013-06-06 01:13:00,53.8,53.2,30.09,NNW,337,0.0,-999.0,98,-99.99,,,0.00,Acu-Link.com,2013-06-06 05:13:00,
2013-06-06 01:28:00,53.1,52.5,30.09,NNW,337,0.0,-999.0,98,-99.99,,,0.00,Acu-Link.com,2013-06-06 05:28:00,
2013-06-06 01:44:00,52.7,52.2,30.10,NNW,337,0.0,-999.0,98,-99.99,,,0.00,Acu-Link.com,2013-06-06 05:44:00,
2013-06-06 01:59:00,52.2,51.6,30.10,NNW,337,1.1,-999.0,98,-99.99,,,0.00,Acu-Link.com,2013-06-06 05:59:00,
2013-06-06 02:14:00,51.6,51.1,30.10,NNW,337,2.2,-999.0,98,-99.99,,,0.00,Acu-Link.com,2013-06-06 06:14:00,
2013-06-06 02:29:00,51.8,51.3,30.11,NNW,337,1.6,-999.0,98,-99.99,,,0.00,Acu-Link.com,2013-06-06 06:29:00,
2013-06-06 02:45:00,52.3,51.8,30.12,NNW,337,0.0,-999.0,98,-99.99,,,0.00,Acu-Link.com,2013-06-06 06:45:00,
2013-06-06 03:00:00,52.3,51.8,30.11,NNW,337,0.0,-999.0,98,-99.99,,,0.00,Acu-Link.com,2013-06-06 07:00:00,
2013-06-06 03:15:00,52.5,52.0,30.11,NNW,337,0.0,-999.0,98,-99.99,,,0.00,Acu-Link.com,2013-06-06 07:15:00,
2013-06-06 03:30:00,52.2,51.6,30.10,NNW,337,0.0,-999.0,98,-99.99,,,0.00,Acu-Link.com,2013-06-06 07:30:00,
2013-06-06 03:46:00,51.6,51.1,30.10,NNW,337,0.0,-999.0,98,-99.99,,,0.00,Acu-Link.com,2013-06-06 07:46:00,
2013-06-06 04:01:00,50.9,50.4,30.10,NNW,337,0.0,-999.0,98,-99.99,,,0.00,Acu-Link.com,2013-06-06 08:01:00,
2013-06-06 04:16:00,50.7,50.2,30.09,NNW,337,0.0,-999.0,98,-99.99,,,0.00,Acu-Link.com,2013-06-06 08:16:00,
2013-06-06 04:32:00,50.4,49.8,30.10,NNW,337,0.0,-999.0,98,-99.99,,,0.00,Acu-Link.com,2013-06-06 08:32:00,
2013-06-06 04:47:00,50.5,50.0,30.10,NNW,337,0.0,-999.0,98,-99.99,,,0.00,Acu-Link.com,2013-06-06 08:47:00,
2013-06-06 05:02:00,50.0,49.5,30.09,NNW,337,0.0,-999.0,98,-99.99,,,0.00,Acu-Link.com,2013-06-06 09:02:00,
2013-06-06 05:17:00,49.6,49.1,30.09,NNW,337,0.0,-999.0,98,-99.99,,,0.00,Acu-Link.com,2013-06-06 09:17:00,
2013-06-06 05:32:00,49.6,49.1,30.09,NNW,337,0.0,-999.0,98,-99.99,,,0.00,Acu-Link.com,2013-06-06 09:32:00,
2013-06-06 05:47:00,49.3,48.7,30.09,NNW,337,0.0,-999.0,98,-99.99,,,0.00,Acu-Link.com,2013-06-06 09:47:00,
2013-06-06 06:02:00,49.3,48.7,30.10,NNW,337,0.0,-999.0,98,-99.99,,,0.00,Acu-Link.com,2013-06-06 10:02:00,
2013-06-06 06:18:00,50.2,49.6,30.11,NNW,337,0.0,-999.0,98,-99.99,,,0.00,Acu-Link.com,2013-06-06 10:18:00,
2013-06-06 06:33:00,51.6,51.1,30.10,NNW,337,0.0,-999.0,98,-99.99,,,0.00,Acu-Link.com,2013-06-06 10:33:00,
2013-06-06 06:48:00,55.2,54.7,30.11,NNW,337,0.0,-999.0,98,-99.99,,,0.00,Acu-Link.com,2013-06-06 10:48:00,
2013-06-06 07:03:00,59.0,57.6,30.10,NNW,337,0.0,-999.0,95,-99.99,,,0.00,Acu-Link.com,2013-06-06 11:03:00,
2013-06-06 07:18:00,61.9,57.3,30.11,NNW,337,0.0,-999.0,85,-99.99,,,0.00,Acu-Link.com,2013-06-06 11:18:00,
2013-06-06 07:34:00,63.9,57.6,30.11,NNW,337,0.0,-999.0,80,-99.99,,,0.00,Acu-Link.com,2013-06-06 11:34:00,
2013-06-06 07:49:00,64.6,57.6,30.11,NNW,337,2.2,-999.0,78,-99.99,,,0.00,Acu-Link.com,2013-06-06 11:49:00,
2013-06-06 08:04:00,63.5,56.9,30.11,NNW,337,1.6,-999.0,79,-99.99,,,0.00,Acu-Link.com,2013-06-06 12:04:00,
2013-06-06 08:19:00,66.4,58.2,30.10,ESE,112,1.6,-999.0,75,-99.99,,,0.00,Acu-Link.com,2013-06-06 12:19:00,
2013-06-06 08:35:00,67.3,59.1,30.10,ESE,112,1.6,-999.0,75,-99.99,,,0.00,Acu-Link.com,2013-06-06 12:35:00,
2013-06-06 08:50:00,66.9,59.1,30.10,ESE,112,0.0,-999.0,76,-99.99,,,0.00,Acu-Link.com,2013-06-06 12:50:00,
2013-06-06 09:05:00,66.2,58.4,30.09,ESE,112,2.7,-999.0,76,-99.99,,,0.00,Acu-Link.com,2013-06-06 13:05:00,
2013-06-06 09:21:00,65.8,59.1,30.08,East,90,0.0,-999.0,79,-99.99,,,0.00,Acu-Link.com,2013-06-06 13:21:00,
2013-06-06 09:36:00,66.6,59.1,30.09,East,90,2.2,-999.0,77,-99.99,,,0.00,Acu-Link.com,2013-06-06 13:36:00,
2013-06-06 09:51:00,68.5,61.0,30.08,East,90,3.1,-999.0,77,-99.99,,,0.00,Acu-Link.com,2013-06-06 13:51:00,
2013-06-06 10:06:00,72.1,61.4,30.08,East,90,2.7,-999.0,69,-99.99,,,0.00,Acu-Link.com,2013-06-06 14:06:00,
2013-06-06 10:22:00,72.3,61.2,30.08,SSE,157,3.1,-999.0,68,-99.99,,,0.00,Acu-Link.com,2013-06-06 14:22:00,
2013-06-06 10:37:00,71.6,60.5,30.07,SW,225,3.8,-999.0,68,-99.99,,,0.00,Acu-Link.com,2013-06-06 14:37:00,
2013-06-06 10:52:00,71.8,61.9,30.06,East,90,7.4,-999.0,71,-99.99,,,0.00,Acu-Link.com,2013-06-06 14:52:00,
2013-06-06 11:08:00,72.5,61.3,30.07,SE,135,3.8,-999.0,68,-99.99,,,0.00,Acu-Link.com,2013-06-06 15:08:00,
2013-06-06 11:23:00,72.1,61.8,30.06,SE,135,7.8,-999.0,70,-99.99,,,0.00,Acu-Link.com,2013-06-06 15:23:00,
2013-06-06 11:38:00,70.2,60.7,30.06,East,90,5.1,-999.0,72,-99.99,,,0.00,Acu-Link.com,2013-06-06 15:38:00,
2013-06-06 11:54:00,72.3,61.6,30.05,SSW,202,6.3,-999.0,69,-99.99,,,0.00,Acu-Link.com,2013-06-06 15:54:00,
2013-06-06 12:09:00,72.7,61.5,30.06,South,180,2.2,-999.0,68,-99.99,,,0.00,Acu-Link.com,2013-06-06 16:09:00,
2013-06-06 12:24:00,72.5,60.1,30.05,ESE,112,4.3,-999.0,65,-99.99,,,0.00,Acu-Link.com,2013-06-06 16:24:00,
2013-06-06 12:39:00,73.0,60.6,30.04,ESE,112,4.3,-999.0,65,-99.99,,,0.00,Acu-Link.com,2013-06-06 16:39:00,
2013-06-06 12:55:00,73.2,60.7,30.04,ESE,112,3.1,-999.0,65,-99.99,,,0.00,Acu-Link.com,2013-06-06 16:55:00,
2013-06-06 13:10:00,73.0,61.4,30.03,East,90,1.6,-999.0,67,-99.99,,,0.00,Acu-Link.com,2013-06-06 17:10:00,
2013-06-06 13:25:00,73.2,60.3,30.03,South,180,6.3,-999.0,64,-99.99,,,0.00,Acu-Link.com,2013-06-06 17:25:00,
2013-06-06 13:41:00,74.5,60.6,30.02,South,180,3.1,-999.0,62,-99.99,,,0.00,Acu-Link.com,2013-06-06 17:41:00,
2013-06-06 13:56:00,73.6,61.1,30.03,SSW,202,4.3,-999.0,65,-99.99,,,0.00,Acu-Link.com,2013-06-06 17:56:00,
2013-06-06 14:11:00,73.0,61.8,30.03,SSW,202,1.6,-999.0,68,-99.99,,,0.00,Acu-Link.com,2013-06-06 18:11:00,
2013-06-06 14:27:00,70.5,59.8,30.03,SSW,202,7.8,-999.0,69,-99.99,,,0.00,Acu-Link.com,2013-06-06 18:27:00,
2013-06-06 14:42:00,69.8,59.6,30.03,SSW,202,4.7,-999.0,70,-99.99,,,0.00,Acu-Link.com,2013-06-06 18:42:00,
2013-06-06 14:57:00,69.6,60.6,30.03,NNE,22,8.9,-999.0,73,-99.99,,,0.00,Acu-Link.com,2013-06-06 18:57:00,
2013-06-06 15:12:00,68.4,59.7,30.03,SSW,202,1.6,-999.0,74,-99.99,,,0.00,Acu-Link.com,2013-06-06 19:12:00,
2013-06-06 15:28:00,67.3,58.3,30.03,SW,225,3.8,-999.0,73,-99.99,,,0.00,Acu-Link.com,2013-06-06 19:28:00,
2013-06-06 15:45:00,67.1,58.5,30.02,SSW,202,4.3,-999.0,74,-99.99,,,0.00,Acu-Link.com,2013-06-06 19:45:00,
2013-06-06 16:00:00,66.9,60.2,30.02,SSW,202,0.0,-999.0,79,-99.99,,,0.00,Acu-Link.com,2013-06-06 20:00:00,
2013-06-06 16:15:00,67.1,59.3,30.02,SSW,202,1.6,-999.0,76,-99.99,,,0.00,Acu-Link.com,2013-06-06 20:15:00,
2013-06-06 16:31:00,67.3,59.8,30.02,SW,225,2.2,-999.0,77,-99.99,,,0.00,Acu-Link.com,2013-06-06 20:31:00,
2013-06-06 16:46:00,67.1,58.9,30.02,South,180,2.2,-999.0,75,-99.99,,,0.00,Acu-Link.com,2013-06-06 20:46:00,
2013-06-06 21:24:00,57.6,57.0,30.02,ENE,67,0.0,-999.0,98,-99.99,,,0.00,Acu-Link.com,2013-06-07 01:24:00,
2013-06-06 21:39:00,57.4,56.8,30.02,NNW,337,1.6,-999.0,98,-99.99,,,0.02,Acu-Link.com,2013-06-07 01:39:00,
2013-06-06 21:54:00,57.0,56.5,30.01,NNW,337,1.6,-999.0,98,-99.99,,,0.06,Acu-Link.com,2013-06-07 01:54:00,
2013-06-06 22:09:00,57.0,56.5,30.01,NNW,337,3.8,-999.0,98,-99.99,,,0.07,Acu-Link.com,2013-06-07 02:09:00,
2013-06-06 22:25:00,57.0,56.5,30.00,NNW,337,1.6,-999.0,98,-99.99,,,0.08,Acu-Link.com,2013-06-07 02:25:00,
2013-06-06 22:40:00,57.0,56.5,30.00,NNW,337,3.1,-999.0,98,-99.99,,,0.08,Acu-Link.com,2013-06-07 02:40:00,
2013-06-06 22:55:00,57.0,56.5,30.00,NNW,337,1.6,-999.0,98,-99.99,,,0.08,Acu-Link.com,2013-06-07 02:55:00,
2013-06-06 23:10:00,57.2,56.6,29.99,NNW,337,0.0,-999.0,98,-99.99,,,0.08,Acu-Link.com,2013-06-07 03:10:00,
2013-06-06 23:26:00,57.4,56.8,30.00,NNW,337,1.1,-999.0,98,-99.99,,,0.09,Acu-Link.com,2013-06-07 03:26:00,
2013-06-06 23:41:00,57.7,57.2,30.00,NNW,337,2.7,-999.0,98,-99.99,,,0.09,Acu-Link.com,2013-06-07 03:41:00,
2013-06-06 23:56:00,57.7,57.2,29.99,NNW,337,2.7,-999.0,98,-99.99,,,0.09,Acu-Link.com,2013-06-07 03:56:00,